Location: Chervonnoye
(48.6000°N, 34.4000°E)
Time: 06:49:13
(UTC+00:00)

Nadezhda 1 Rocket - Pass Details

Date: 19 April 2021
Orbit: 940 x 1006 km, 83.0° (Epoch: 13 May)

Event Time Altitude Azimuth Distance (km) Brightness Sun altitude
Exits shadow 21:06:44 27° 87° (E) 1,838 5.3 -29.4°
Maximum altitude 21:06:57 27° 83° (E) 1,836 5.3 -29.4°
Drops below altitude 10° 21:12:07 10° 29° (NNE) 2,783 7.0 -29.6°
Sets 21:15:02 0° 18° (NNE) 3,731 8.0 -29.6°
